Location: Newark
(52.4787°S, 179.0532°W)
Time: 19:33:54
(UTC+00:00)

Vanguard 1 - Pass Details

Date: 22 November 2019
Orbit: 652 x 3831 km, 34.2° (Epoch: 05 December)

Event Time Altitude Azimuth Distance (km) Brightness Sun altitude
Rises 09:39:51 0° 319° (NW) 4,985 13.5 -12.7°
Reaches altitude 10° 09:43:04 10° 328° (NNW) 4,376 13.1 -12.9°
Maximum altitude 09:54:03 34° 26° (NNE) 3,920 12.5 -13.7°
Drops below altitude 10° 10:10:49 10° 80° (E) 6,676 14.0 -14.7°
Sets 10:17:16 0° 87° (E) 7,914 14.4 -15.1°
